Location: Jackson
(42.2460°N, 84.4010°W)
Time: 18:53:22
(UTC-04:00)

Courier 1B Rocket - Pass Details

Date: 16 February 2026
Orbit: 920 x 1201 km, 28.2° (Epoch: 13 March)

Event Time Altitude Azimuth Distance (km) Brightness Sun altitude
Rises 22:00:23 0° 243° (WSW) 3,591 8.3 -42.1°
Enters shadow 22:02:40 - 234° (SW) 2,893 7.7 -42.5°
Reaches altitude 10° 22:03:27 10° 229° (SW) 2,678 - -42.7°
Maximum altitude 22:08:27 24° 178° (S) 1,926 - -43.5°
Drops below altitude 10° 22:13:41 10° 128° (SE) 2,820 - -44.3°
Sets 22:17:01 0° 115° (ESE) 3,826 - -44.9°
